Change the Weather History Date:

Monday, May 7, 2012

  Actual Average Record
Temperature  
Mean Temperature 60 °F 55 °F  
Max Temperature 69 °F 67 °F 91 °F (1934)
Min Temperature 50 °F 43 °F 28 °F (1929)
Degree Days  
Heating Degree Days 5 11  
Month to date heating degree days 32 80  
Since 1 July heating degree days 6336 7721  
Cooling Degree Days 0 1  
Month to date cooling degree days 5 1  
Year to date cooling degree days 19 5  
Growing Degree Days 9 (Base 50)    
Moisture  
Dew Point 48 °F    
Average Humidity 69    
Maximum Humidity 100    
Minimum Humidity 37    
Precipitation  
Precipitation 0.00 in 0.11 in 0.88 in (1983)
Month to date precipitation 2.51 0.76  
Year to date precipitation 9.70 6.94  
Snow  
Snow 0.00 in 0.00 in T in (2010)
Month to date snowfall 0.0 0.1  
Since 1 July snowfall 23.8 46.9  
Snow Depth 0.00 in    
Sea Level Pressure  
Sea Level Pressure 29.91 in    
Wind  
Wind Speed 7 mph (West)    
Max Wind Speed 20 mph    
Max Gust Speed 26 mph    
Visibility 7 miles    
Events Fog    
T = Trace of Precipitation, MM = Missing Value Source: NWS Daily Summary

Daily Weather History Graph

Daily Weather History Graph

Search for Another Location

Airport or City:

Trip Planner

Search our weather history database for the weather conditions in past years. The results will help you decide how hot, cold, wet, or windy it might be!

Date:

Astronomy

May. 07, 2012 Rise Set
Actual Time 5:46 AM CDT 8:19 PM CDT
Civil Twilight 5:13 AM CDT 8:52 PM CDT
Nautical Twilight 4:31 AM CDT 9:34 PM CDT
Astronomical Twilight 3:44 AM CDT 10:21 PM CDT
Moon 10:35 PM CDT (5/7) 6:48 AM CDT (5/7)
Length of Visible Light 15h 39m
Length of Day
14h 32m
Waning Gibbous, 96% of the Moon is Illuminated
May 7
Waning Gibbous
May 12
Last Quarter
May 20
New
May 28
First Quarter
Jun 4
Full

Hourly Weather History & Observations

Time (CDT) Temp. Dew Point Humidity Pressure Visibility Wind Dir Wind Speed Gust Speed Precip Events Conditions
12:56 AM 51.1 °F 50.0 °F 96% 29.98 in 4.0 mi NE 3.5 mph - N/A   Overcast
1:26 AM 51.8 °F 50.0 °F 94% 29.97 in 4.0 mi East 4.6 mph - N/A   Overcast
1:56 AM 50.0 °F 48.9 °F 96% 29.96 in 5.0 mi NE 4.6 mph - N/A   Overcast
2:56 AM 50.0 °F 48.9 °F 96% 29.94 in 5.0 mi Calm Calm - N/A   Overcast
3:56 AM 50.0 °F 48.9 °F 96% 29.94 in 6.0 mi Calm Calm - N/A   Overcast
4:42 AM 50.0 °F 50.0 °F 100% 29.94 in 2.5 mi Calm Calm - N/A   Overcast
4:56 AM 50.0 °F 50.0 °F 100% 29.94 in 1.5 mi Calm Calm - N/A   Overcast
5:19 AM 50.0 °F 50.0 °F 100% 29.94 in 2.5 mi Calm Calm - N/A   Overcast
5:56 AM 51.1 °F 50.0 °F 96% 29.94 in 1.8 mi Calm Calm - 0.01 in   Overcast
6:15 AM 51.8 °F 51.8 °F 100% 29.93 in 0.8 mi Calm Calm - N/A   Mist
6:56 AM 51.1 °F 51.1 °F 100% 29.94 in 0.5 mi Calm Calm - N/A Fog Fog
7:20 AM 51.8 °F 51.8 °F 100% 29.94 in 1.0 mi WSW 5.8 mph - N/A   Mist
7:30 AM 53.6 °F 51.8 °F 94% 29.94 in 3.0 mi WNW 3.5 mph - N/A   Overcast
7:56 AM 53.1 °F 52.0 °F 96% 29.95 in 10.0 mi West 4.6 mph - N/A   Overcast
8:16 AM 53.6 °F 51.8 °F 94% 29.94 in 10.0 mi West 4.6 mph - N/A   Overcast
8:56 AM 55.9 °F 52.0 °F 87% 29.94 in 10.0 mi West 8.1 mph - N/A   Overcast
9:22 AM 57.2 °F 51.8 °F 82% 29.93 in 10.0 mi WNW 6.9 mph - N/A   Mostly Cloudy
9:39 AM 59.0 °F 51.8 °F 77% 29.93 in 10.0 mi NNW 5.8 mph - N/A   Scattered Clouds
9:46 AM 59.0 °F 50.0 °F 72% 29.92 in 10.0 mi NW 8.1 mph - N/A   Mostly Cloudy
9:56 AM 59.0 °F 51.1 °F 75% 29.92 in 10.0 mi WSW 5.8 mph - N/A   Mostly Cloudy
10:40 AM 60.8 °F 51.8 °F 72% 29.91 in 10.0 mi West 8.1 mph - N/A   Scattered Clouds
10:56 AM 62.1 °F 51.1 °F 67% 29.91 in 10.0 mi West 10.4 mph - N/A   Partly Cloudy
11:56 AM 64.0 °F 48.9 °F 58% 29.90 in 10.0 mi West 9.2 mph - N/A   Clear
12:56 PM 64.9 °F 44.1 °F 47% 29.89 in 10.0 mi West 15.0 mph 23.0 mph N/A   Clear
1:56 PM 66.9 °F 46.0 °F 47% 29.89 in 10.0 mi WNW 11.5 mph 17.3 mph N/A   Clear
2:56 PM 68.0 °F 41.0 °F 37% 29.89 in 10.0 mi West 12.7 mph 21.9 mph N/A   Clear
3:56 PM 68.0 °F 43.0 °F 40% 29.87 in 10.0 mi West 13.8 mph 21.9 mph N/A   Clear
4:56 PM 66.9 °F 44.1 °F 44% 29.86 in 10.0 mi West 11.5 mph 23.0 mph N/A   Partly Cloudy
5:56 PM 66.0 °F 44.1 °F 45% 29.86 in 10.0 mi West 11.5 mph - N/A   Partly Cloudy
6:56 PM 64.0 °F 44.1 °F 48% 29.86 in 10.0 mi WNW 11.5 mph - N/A   Partly Cloudy
7:56 PM 60.1 °F 42.1 °F 51% 29.86 in 10.0 mi West 8.1 mph - N/A   Clear
8:56 PM 59.0 °F 43.0 °F 55% 29.86 in 10.0 mi Calm Calm - N/A   Mostly Cloudy
9:56 PM 55.0 °F 44.1 °F 67% 29.87 in 10.0 mi West 4.6 mph - N/A   Scattered Clouds
10:56 PM 55.0 °F 44.1 °F 67% 29.86 in 10.0 mi West 5.8 mph - N/A   Mostly Cloudy
11:56 PM 55.0 °F 41.0 °F 59% 29.86 in 10.0 mi West 11.5 mph - N/A   Clear